Location: Elstree
(51.6403°N, 0.2969°W)
Time: 07:36:29
(UTC+00:00)

Envisat - Pass Details

Date: 10 December 2022
Orbit: 763 x 765 km, 98.2° (Epoch: 04 February)

Event Time Altitude Azimuth Distance (km) Brightness Sun altitude
Rises 06:36:12 0° 2° (N) 3,248 6.0 -11.6°
Reaches altitude 10° 06:40:05 10° 332° (NNW) 2,315 5.0 -11.0°
Enters shadow 06:41:24 12° 317° (NW) 2,194 4.8 -10.8°
